Погода в Ламу

Кения     2°23′09″S   40°41′49″E
темп.,
°C
ветер,
м/с
пор.,
м/с
влажн.,
%
обл.,
%
осадки,
мм/ч
давл.,
гПа
погр.,
м
27 ноября, сб
сб2700:00+27юв4682100 0.4 1012355
03:00+27вюв348191 1.4 1012435
06:00+27ююв348228 2.4 1013281
09:00+27ю4478100 3.1 1014449
12:00+28ю54715 0.1 1012705
15:00+28ююв5672100 0.1 1010742
18:00+28ююв5677100 0.0 1011668
21:00+27ююв568167 0.0 1013619
28 ноября, вс
вс2800:00+27юв458299 2.0 1012513
03:00+27ююв4581100 4.0 1011426
06:00+27ююв348098 2.8 1012260
09:00+28ююв2275100 3.8 1013467
12:00+28ю437411 0.0 1011594
15:00+29ююв667145 0.0 1009533
18:00+28ююв567717 0.1 1010445
21:00+28юв578197 0.3 1012473
29 ноября, пн
пн2900:00+27вюв458357 2.4 1012307
03:00+27юв348238 3.8 1010272
06:00+26вюв018222 1.9 101236
09:00+27ю22755 2.2 1013491
12:00+28ю437299 0.0 1011572
15:00+28ююв557397 0.0 1009530
18:00+28юв567998 0.0 1009514
21:00+27вюв458137 1.0 1012386
30 ноября, вт
вт3000:00+27вюв568199 0.3 1011446
03:00+27вюв448114 3.0 1010338
06:00+26в23835 2.4 1011126
09:00+27вюв22777 4.5 1013273
12:00+28юв4372100 0.6 1011585
15:00+28юв446897 0.6 1009651
18:00+28в557547 0.0 1010649
21:00+27в468030 0.0 1011511
1 декабря, ср
ср100:00+27в56805 0.0 1010486
03:00+26в56835 1.8 1009392
06:00+27в56815 1.0 1010411
09:00+28вюв45765 2.4 1012432
12:00+28в557410 0.4 1011721
15:00+28вюв557213 0.6 1009687
18:00+28вюв567854 0.0 1009685
21:00+27вюв56803 0.2 1011605